TimeEST,TemperatureF,Dew PointF,Humidity,Sea Level PressureIn,VisibilityMPH,Wind Direction,Wind SpeedMPH,Gust SpeedMPH,PrecipitationIn,Events,Conditions,WindDirDegrees,DateUTC
12:54 AM,34.0,32.0,92,29.88,-9999.0,North,-9999.0,-,0.12,,Unknown,0,2013-12-22 05:54:00
1:54 AM,33.1,32.0,96,29.88,-9999.0,North,-9999.0,-,0.09,,Unknown,0,2013-12-22 06:54:00
2:54 AM,33.1,30.9,92,29.86,-9999.0,North,-9999.0,-,0.09,,Unknown,0,2013-12-22 07:54:00
3:54 AM,33.1,30.9,92,29.84,-9999.0,North,-9999.0,-,0.10,,Unknown,0,2013-12-22 08:54:00
4:54 AM,33.1,30.9,92,29.79,-9999.0,North,-9999.0,-,0.12,,Unknown,0,2013-12-22 09:54:00
5:54 AM,33.1,32.0,96,29.77,-9999.0,North,-9999.0,-,0.07,,Unknown,0,2013-12-22 10:54:00
6:54 AM,33.1,32.0,96,29.74,-9999.0,North,-9999.0,-,0.03,,Unknown,0,2013-12-22 11:54:00
7:54 AM,34.0,32.0,92,29.76,-9999.0,North,-9999.0,-,0.09,,Unknown,0,2013-12-22 12:54:00
8:54 AM,34.0,32.0,92,29.78,-9999.0,North,-9999.0,-,0.05,,Unknown,0,2013-12-22 13:54:00
9:54 AM,34.0,32.0,92,29.81,-9999.0,North,-9999.0,-,0.05,,Unknown,0,2013-12-22 14:54:00
10:54 AM,34.0,33.1,96,29.80,-9999.0,North,-9999.0,-,0.03,,Unknown,0,2013-12-22 15:54:00
11:54 AM,34.0,33.1,96,29.77,-9999.0,North,-9999.0,-,N/A,,Unknown,0,2013-12-22 16:54:00
12:54 PM,34.0,33.1,96,29.71,-9999.0,North,-9999.0,-,N/A,,Unknown,0,2013-12-22 17:54:00
1:54 PM,35.1,33.1,92,29.80,-9999.0,North,-9999.0,-,N/A,,Unknown,0,2013-12-22 18:54:00
2:54 PM,35.1,34.0,96,29.78,-9999.0,North,-9999.0,-,N/A,,Unknown,0,2013-12-22 19:54:00
3:54 PM,35.1,34.0,96,29.81,-9999.0,North,-9999.0,-,N/A,,Unknown,0,2013-12-22 20:54:00
4:54 PM,36.0,34.0,93,29.82,-9999.0,North,-9999.0,-,N/A,,Unknown,0,2013-12-22 21:54:00
5:54 PM,37.0,35.1,93,29.84,-9999.0,North,-9999.0,-,N/A,,Unknown,0,2013-12-22 22:54:00
6:54 PM,39.0,36.0,89,29.85,-9999.0,North,-9999.0,-,N/A,,Unknown,0,2013-12-22 23:54:00
7:54 PM,37.0,35.1,93,29.90,-9999.0,North,-9999.0,-,N/A,,Unknown,0,2013-12-23 00:54:00
8:54 PM,37.0,35.1,93,29.90,-9999.0,North,-9999.0,-,N/A,,Unknown,0,2013-12-23 01:54:00
9:54 PM,36.0,35.1,97,29.93,-9999.0,North,-9999.0,-,N/A,,Unknown,0,2013-12-23 02:54:00
10:54 PM,36.0,35.1,97,29.95,-9999.0,North,-9999.0,-,0.01,,Unknown,0,2013-12-23 03:54:00
11:54 PM,36.0,35.1,97,29.97,-9999.0,North,-9999.0,-,0.02,,Unknown,0,2013-12-23 04:54:00